Regional Weather Roundup
Issued by NWS Memphis, TN

Home | Current Version | Previous Version | Text Only | Print | Product List | Glossary On
Versions: 1 2 3 4 5 6 7 8 9 10 11 12 13 14 15 16 17 18 19 20 21 22 23 24 25 26 27 28 29 30 31 32 33 34 35 36 37 38 39 40 41 42 43 44 45 46 47 48 49 50
000
ASUS44 KMEG 020110
RWRMEG
MEMPHIS CWA HOURLY WEATHER ROUNDUP
NATIONAL WEATHER SERVICE MEMPHIS TN
800 PM CDT SUN MAY 01 2016

...WEST TENNESSEE...

CITY           SKY/WX    TMP DP  RH WIND       PRES   REMARKS
MEMPHIS INTL   PTCLDY    75  67  76 NW5       29.93R
NWS MEMPHIS      N/A     72 N/A N/A MISG        N/A
JACKSON        MOCLDY    70  63  78 CALM      29.93F
LEXINGTON      CLEAR     70  66  88 CALM      29.94R
DYERSBURG      CLEAR     73  64  73 CALM        N/A
UNION CITY     CLEAR     72  66  83 S3        29.91S


...EASTERN ARKANSAS...

CITY           SKY/WX    TMP DP  RH WIND       PRES   REMARKS
JONESBORO      CLEAR     73  60  63 NW3       29.93R
WEST MEMPHIS   CLEAR     71  68  90 CALM      29.92R
BATESVILLE     CLEAR     70  55  60 CALM      29.95S
NEWPORT        CLEAR     74  60  61 N5        29.95R
WALNUT RIDGE   CLEAR     70  54  56 NW12      29.94S
BLYTHEVILLE    PTCLDY    75  66  73 W3        29.93R
SEARCY         CLEAR     72  63  73 CALM      29.94S
STUTTGART      CLEAR     75  64  69 N6        29.92S
PINE BLUFF     CLEAR     75  66  73 CALM      29.92R
MONTICELLO     PTCLDY    72  69  90 CALM      29.90R


...NORTH MISSISSIPPI...

CITY           SKY/WX    TMP DP  RH WIND       PRES   REMARKS
TUPELO         PTCLDY    72  64  76 SE7       29.96R
OXFORD         PTCLDY    73  66  78 S7        29.96R
BATESVILLE     FAIR      75  66  75 CALM      29.94R
OLIVE BRANCH   MOCLDY    73  73 100 CALM      29.93S
TUNICA         CLEAR     72  66  83 N6        29.93R
CORINTH        CLEAR     73  66  78 S7        29.94R
GREENWOOD      CLEAR     75  67  76 SE6       29.91S
STARKVILLE     FAIR      68  66  94 SE3       29.95F
GOLDEN TRIANGL CLOUDY    70  64  83 SE7       29.97R


...SOUTHEAST MISSOURI...

CITY           SKY/WX    TMP DP  RH WIND       PRES   REMARKS
KENNETT        FAIR      73  64  73 W7        29.92R
WEST PLAINS    CLEAR     63  46  54 NW8       30.00R
POPLAR BLUFF   CLEAR     72  54  53 W5        29.92R
CAPE GIRARDEAU CLEAR     71  61  70 SW8       29.90R


...NORTHWEST ALABAMA...

CITY           SKY/WX    TMP DP  RH WIND       PRES   REMARKS


...MIDDLE TENNESSEE...

CITY           SKY/WX    TMP DP  RH WIND       PRES   REMARKS
NASHVILLE      PTCLDY    70  64  81 CALM      29.94F
CLARKSVILLE    CLEAR     68  62  81 S3        29.93R
COLUMBIA       PTCLDY    72  72 100 CALM      29.96R


...WESTERN KENTUCKY...

CITY           SKY/WX    TMP DP  RH WIND       PRES   REMARKS
PADUCAH        CLEAR     73  64  73 SW5       29.90R
FORT CAMPBELL  CLEAR     71  65  82 S5        29.93R


...CENTRAL ARKANSAS...

CITY           SKY/WX    TMP DP  RH WIND       PRES   REMARKS
LITTLE ROCK    PTCLDY    72  55  55 N8        29.93R


SKY/WX REPORTED AS FAIR MEANS FEW OR NO CLOUDS BELOW
12 THOUSAND FEET.





USA.gov is the U.S. government's official web portal to all federal, state and local government web resources and services.